310  
ASUS45 KBOI 251610  
RWRID  
 
IDAHO REGIONAL WEATHER ROUNDUP  
NATIONAL WEATHER SERVICE BOISE ID  
1000 AM MDT TUE APR 25 2017  
 
NOTE: "FAIR" INDICATES FEW OR NO CLOUDS BELOW 12000 FEET  
WITH NO SIGNIFICANT WEATHER AND/OR S TO VISIBILITY
 
 
IDZ012-014-251700-  
SOUTHWEST IDAHO  
 
 
CITY SKY/WX TMP DP RH WIND PRES REMARKS
 
BOISE SUNNY 46 35 65 NW17G23 29.93S  
CALDWELL SUNNY 49 35 58 W16G22 29.95R  
MOUNTAIN HOME MOSUNNY 46 28 49 NW21G29 29.92R  

 
 
IDZ016-017-251700-  
SOUTHCENTRAL IDAHO  
 
 
CITY SKY/WX TMP DP RH WIND PRES REMARKS
 
BURLEY LGT RAIN 42 32 67 W26G39 29.82R  
JEROME MOSUNNY 42 32 67 W25G40 29.86R  
TWIN FALLS MOSUNNY 43 33 68 W26G38 29.87R  

 
 
IDZ019>023-251700-  
SOUTHEAST IDAHO  
 
 
CITY SKY/WX TMP DP RH WIND PRES REMARKS
 
IDAHO FALLS LGT RAIN 34 34 100 SW9 29.78R WCI 27  
POCATELLO CLOUDY 39 36 89 W16 29.82R WCI 30  
REXBURG LGT RAIN 35 35 100 S7 29.75R WCI 29  

 
 
IDZ006-010-011-018-031-032-251700-  
CENTRAL IDAHO MOUNTAINS  
 
 
CITY SKY/WX TMP DP RH WIND PRES REMARKS
 
MCCALL MOSUNNY 39 33 79 CALM 29.87R  
HAILEY MOSUNNY 46 21 36 N12 29.80R  
STANLEY N/A 36 29 75 N5 29.86R WCI 32  
SALMON CLOUDY 45 34 65 N5 29.84S  
CHALLIS CLOUDY 45 28 51 NE8 29.83R  

 
 
IDZ002-004-006-007-026-251700-  
NORTHERN IDAHO  
 
 
CITY SKY/WX TMP DP RH WIND PRES REMARKS
 
LEWISTON CLOUDY 50 43 77 CALM 29.91S  
LOWELL N/A 45 42 89 CALM 29.95R  
COEUR D'ALENE CLOUDY 45 41 86 SW10 29.88R  
MULLAN PASS FOG 31 31 100 VRB7 29.82R VSB 1/4 WCI 24  

 
 
 
CLICK HERE TO GO TO PREVIOUS BULLETINS.

The Nexlab ID Page Main Text Page